{"data":{"norad_id":62386,"intl_designator":"2024-247K","name":"TOMORROW-S4","alt_names":[],"object_type":"PAYLOAD","status":"ACTIVE","operator":null,"country":"US","launch_date":"2024-12-21","launch_site_code":"AFWTR","launch_vehicle":null,"mission":null,"orbit_class":"UNKNOWN","rcs_meters":null,"size_class":null,"mass_kg":null,"dimensions":null,"purposes":[],"wikipedia_slug":null,"has_3d_model":false,"image_url":null,"decayed_at":null,"tle_current":{"epoch":"2026-09-21T00:03:34.345440Z","epoch_age_seconds":268578,"freshness":"STALE","line1":"1 62386U 24247K   26264.00248085  .00003625  00000+0  13178-3 0  9999","line2":"2 62386  44.9812 128.1723 0005107 231.7539 128.2885 15.30232788 97629","mean_motion":15.30232788,"eccentricity":0.0005107,"inclination_deg":44.9812,"raan_deg":128.1723,"arg_perigee_deg":231.7539,"mean_anomaly_deg":128.2885,"bstar":0.00013178,"rev_number":9762,"period_min":94.103329329524,"perigee_km":471.61721520376,"apogee_km":478.61712901515,"semimajor_km":6853.2541721095,"source":"CELESTRAK","updated_at":"2026-09-23T09:00:21.393058Z"}}}